Volver al catálogo

COSMOS 2251 DEB

ActivoLEO
NORAD 35647·DEBRIS·🇷🇺 Russia

Lanzado Jun 16, 1993 desde Plesetsk Cosmodrome

Loading…

Próximos Pases (próximas 24 horas)

TLE

ActualizadoSource: Space-Track

Época: Sep 14, 2026, 02:21 UTC

1 35647U 93036ANN 26257.09860952  .00001135  00000-0  33044-3 0  9994
2 35647  74.0215 141.7903 0047173 177.1363 183.0074 14.44711319716395

Sigue COSMOS 2251 DEB en tiempo real con AllMySat

Download on the App Store